Location: ??
(35.5052°N, 139.7262°E)
Time: 18:22:17
(UTC+00:00)

Cosmos 2346 Rocket - Pass Details

Date: 20 June 2021
Orbit: 937 x 979 km, 82.9° (Epoch: 30 July)

Event Time Altitude Azimuth Distance (km) Brightness Sun altitude
Exits shadow 13:34:57 65° 80° (E) 1,045 4.5 -28.9°
Drops below altitude 10° 13:40:50 10° 13° (NNE) 2,699 7.5 -29.3°
Sets 13:43:22 0° 10° (N) 3,655 8.4 -29.4°
